星链-5314 (STARLINK-5314 )

导读

STARLINK-5314是美国SpaceX公司星链星座的一员,于2023年2月17日由猎鹰9号火箭发射升空,属于低地球轨道互联网卫星,作为星链星座扩容卫星,承担全球高速低延迟互联网接入服务任务,目前运行在约550公里的近地轨道,帮助填补偏远地区网络覆盖空白,服务消费级及商业用户。星链星座计划部署数万颗卫星,该卫星加入持续推动了星座规模扩展。

基本信息
目录编号:
55678
目录名称:
STARLINK-5314
国际标识:
2023-021BC
轨道中心:
EARTH
卫星名称:
星链-5314
卫星全名:
星链-5314 (STARLINK-5314 )
卫星状态:
已陨落 最后检测时间 2025-03-28
发射日期:
2023-02-17 UTC
国别 :
美国 (US)
星等 :
--
轨道信息
数据来源 国际轨道数据
星历时间: 2025-03-28T00:08:41+0800
轨道信息已过期444天
半长轴: 6556.227km
偏心率: 0.0016634
轨道倾角: 69.992°
近地点辐角 305.718°
升交点赤经 303.887°
平近点角 137.102°
近地点: 167.186km
远地点: 188.998km
周期: 88.052分钟
每日圈数: 16.353917
详细信息
固有亮度:
5
最大亮度:
2.5
卫星平台:
Starlink v1.5
覆盖范围:
全球
运营商:
太空探索技术公司
运营商所在国:
美国
制造商(研发单位):
太空探索技术公司
制造商所在国:
美国
使用方式:
暂无
卫星简介
星链(Starlink)计划是由太空探索技术公司(SpaceX)提出的一个巨型低轨卫星互联网星座项目,计划在2019年至2024年间在太空搭建由约1.2万颗卫星组成的“星链”网络,其中1584颗将部署在地球上空550千米处的近地轨道,并从2020年开始工作。该卫星仍在工作。